GW2984 Weather Reports


Display with metric or nautical units.
time (UTC)temp
F
wind
direction
speed
MPH
gust
MPH
rain 1hr
in
rain 24hr
in
rain mn
in
humidity
%
barometer
mb
20260905214026 90 0.0 0.0 0.00 0.06 0.06 62 1011.6
20260905213529 91 0.0 0.0 0.00 0.06 0.06 61 1011.7
20260905213043 91 0.0 0.0 0.00 0.06 0.06 62 1011.9
20260905212527 91 0.0 0.0 0.00 0.06 0.06 63 1012.2
20260905212030 91 0.0 0.0 0.00 0.06 0.06 64 1012.1
20260905211544 90 0.0 0.0 0.00 0.06 0.06 64 1012.0
20260905211027 89 0.0 0.0 0.00 0.06 0.06 67 1011.9
20260905210527 89 0.0 0.0 0.00 0.06 0.06 69 1012.0
20260905210049 89 0.0 0.0 0.00 0.06 0.06 67 1012.2
20260905205526 89 0.0 0.0 0.00 0.06 0.06 65 1012.1
20260905205026 89 0.0 0.0 0.00 0.06 0.06 64 1012.2
20260905204545 90 0.0 0.0 0.00 0.06 0.06 64 1012.2
20260905204026 90 0.0 0.0 0.00 0.06 0.06 65 1012.3
20260905203526 90 0.0 0.0 0.00 0.06 0.06 65 1012.5
20260905203044 90 0.0 0.0 0.00 0.06 0.06 64 1012.3
20260905202529 90 0.0 0.0 0.00 0.06 0.06 64 1012.3
20260905202026 90 0.0 0.0 0.00 0.06 0.06 64 1012.4
20260905201543 90 0.0 0.0 0.00 0.06 0.06 63 1012.5
20260905201033 91 0.0 0.0 0.00 0.06 0.06 61 1012.5
20260905200526 91 0.0 0.0 0.00 0.06 0.06 60 1012.6
20260905200049 92 0.0 0.0 0.00 0.06 0.06 58 1012.5
20260905195534 92 0.0 0.0 0.00 0.06 0.06 58 1012.5
20260905195029 92 0.0 0.0 0.00 0.06 0.06 63 1012.5
20260905194547 92 0.0 0.0 0.00 0.06 0.06 61 1012.6
20260905194026 91 0.0 0.0 0.00 0.06 0.06 61 1012.6
20260905193526 90 0.0 0.0 0.00 0.06 0.06 64 1012.6
20260905193045 90 0.0 0.0 0.00 0.06 0.06 61 1012.8
20260905192530 90 0.0 0.0 0.00 0.06 0.06 60 1012.8
20260905192030 91 0.0 0.0 0.00 0.06 0.06 60 1012.8
20260905191543 92 0.0 0.0 0.00 0.06 0.06 61 1012.8
20260905191027 92 0.0 0.0 0.00 0.06 0.06 60 1012.9
20260905190526 91 0.0 0.0 0.00 0.06 0.06 61 1012.9
20260905190052 91 0.0 0.0 0.00 0.06 0.06 60 1013.0
20260905185527 91 0.0 0.0 0.00 0.06 0.06 62 1013.1
20260905185026 91 0.0 0.0 0.00 0.06 0.06 59 1013.2
20260905184553 91 0.0 0.0 0.00 0.06 0.06 61 1013.2
20260905184026 90 0.0 0.0 0.00 0.06 0.06 60 1013.2
20260905183527 91 0.0 0.0 0.00 0.06 0.06 59 1013.3
20260905183048 91 0.0 0.0 0.00 0.06 0.06 63 1013.3
20260905182528 90 0.0 0.0 0.00 0.06 0.06 62 1013.5
20260905182028 90 0.0 0.0 0.00 0.06 0.06 63 1013.6
20260905181556 89 0.0 0.0 0.00 0.06 0.06 62 1013.6
20260905181027 89 0.0 0.0 0.00 0.06 0.06 63 1013.7
20260905180527 88 0.0 0.0 0.00 0.06 0.06 62 1013.7
20260905180048 88 0.0 0.0 0.00 0.06 0.06 65 1013.7
20260905175528 87 0.0 0.0 0.00 0.06 0.06 67 1013.7
20260905175030 87 0.0 0.0 0.00 0.06 0.06 66 1013.8
20260905174546 86 0.0 0.0 0.00 0.06 0.06 68 1013.8
20260905174026 85 0.0 0.0 0.00 0.06 0.06 70 1013.9
20260905173526 85 0.0 0.0 0.00 0.06 0.06 71 1013.9
20260905173042 84 0.0 0.0 0.00 0.06 0.06 71 1014.0
20260905172526 83 0.0 0.0 0.00 0.06 0.06 72 1014.0
20260905172030 83 0.0 0.0 0.00 0.06 0.06 74 1014.0
20260905171545 82 0.0 0.0 0.00 0.06 0.06 75 1014.2
20260905171025 81 0.0 0.0 0.00 0.06 0.06 71 1014.3
20260905170527 80 0.0 0.0 0.00 0.06 0.06 75 1014.3
20260905170043 80 0.0 0.0 0.01 0.06 0.06 77 1014.4
20260905165526 79 0.0 0.0 0.01 0.06 0.06 78 1014.5
20260905165026 78 0.0 0.0 0.01 0.06 0.06 78 1014.6
20260905164543 78 0.0 0.0 0.01 0.06 0.06 78 1014.6
20260905164027 77 0.0 0.0 0.01 0.06 0.06 79 1014.7
20260905163528 77 0.0 0.0 0.01 0.06 0.06 80 1014.7
20260905163047 77 0.0 0.0 0.01 0.06 0.06 81 1014.8
20260905162527 76 0.0 0.0 0.04 0.06 0.06 81 1014.9
20260905162025 76 0.0 0.0 0.06 0.06 0.06 82 1015.0
20260905161544 76 0.0 0.0 0.06 0.06 0.06 82 1015.0
20260905161027 76 0.0 0.0 0.06 0.06 0.06 82 1014.9
20260905160526 75 0.0 0.0 0.06 0.06 0.06 82 1015.1
20260905160044 75 0.0 0.0 0.05 0.05 0.05 81 1015.0
20260905155529 75 0.0 0.0 0.05 0.05 0.05 81 1015.0
20260905155027 75 0.0 0.0 0.05 0.05 0.05 80 1015.1
20260905154549 76 0.0 0.0 0.05 0.05 0.05 80 1015.1
20260905154028 76 0.0 0.0 0.05 0.05 0.05 78 1015.0
20260905153527 77 0.0 0.0 0.05 0.05 0.05 77 1015.1
20260905153055 78 0.0 0.0 0.05 0.05 0.05 76 1015.0
20260905152527 79 0.0 0.0 0.01 0.01 0.01 74 1015.1
20260905152026 79 0.0 0.0 0.00 0.00 0.00 72 1015.0
20260905151543 79 0.0 0.0 0.00 0.00 0.00 71 1015.0
20260905151028 78 0.0 0.0 0.00 0.00 0.00 72 1014.9
20260905150527 78 0.0 0.0 0.00 0.00 0.00 74 1015.1
20260905150054 78 0.0 0.0 0.00 0.00 0.00 73 1015.0
20260905145527 78 0.0 0.0 0.00 0.00 0.00 73 1014.9
20260905145027 77 0.0 0.0 0.00 0.00 0.00 72 1014.9
20260905144548 77 0.0 0.0 0.00 0.00 0.00 73 1014.9
20260905144026 77 0.0 0.0 0.00 0.00 0.00 73 1014.9
20260905143527 76 0.0 0.0 0.00 0.00 0.00 74 1014.9
20260905143044 76 0.0 0.0 0.00 0.00 0.00 73 1014.9
20260905142530 76 0.0 0.0 0.00 0.00 0.00 74 1014.9
20260905142026 76 0.0 0.0 0.00 0.00 0.00 74 1015.0
20260905141553 76 0.0 0.0 0.00 0.00 0.00 74 1014.9
20260905141027 76 0.0 0.0 0.00 0.00 0.00 75 1015.0
20260905140527 75 0.0 0.0 0.00 0.00 0.00 75 1014.9
20260905140046 75 0.0 0.0 0.00 0.00 0.00 75 1015.0
20260905135526 75 0.0 0.0 0.00 0.00 0.00 75 1015.0
20260905135026 75 0.0 0.0 0.00 0.00 0.00 75 1015.1
20260905134542 75 0.0 0.0 0.00 0.00 0.00 76 1015.3
20260905134026 74 0.0 0.0 0.00 0.00 0.00 76 1015.1
20260905133525 74 0.0 0.0 0.00 0.00 0.00 76 1015.2
20260905133049 74 0.0 0.0 0.00 0.00 0.00 76 1015.3
20260905132527 74 0.0 0.0 0.00 0.00 0.00 76 1015.2
20260905132026 74 0.0 0.0 0.00 0.00 0.00 76 1015.3
20260905131559 74 0.0 0.0 0.00 0.00 0.00 77 1015.3
20260905131027 74 0.0 0.0 0.00 0.00 0.00 77 1015.4
20260905130526 73 0.0 0.0 0.00 0.00 0.00 77 1015.3
20260905130047 73 0.0 0.0 0.00 0.00 0.00 78 1015.2
20260905125526 73 0.0 0.0 0.00 0.00 0.00 77 1015.2
20260905125028 73 0.0 0.0 0.00 0.00 0.00 78 1015.1
20260905124542 73 0.0 0.0 0.00 0.00 0.00 78 1015.1
20260905124028 73 0.0 0.0 0.00 0.00 0.00 78 1015.1
20260905123526 73 0.0 0.0 0.00 0.00 0.00 78 1015.0
20260905123049 72 0.0 0.0 0.00 0.00 0.00 78 1015.1
20260905122530 72 0.0 0.0 0.00 0.00 0.00 78 1015.0
20260905122025 72 0.0 0.0 0.00 0.00 0.00 78 1014.9
20260905121544 72 0.0 0.0 0.00 0.00 0.00 78 1015.0
20260905121026 72 0.0 0.0 0.00 0.00 0.00 78 1015.1
20260905120529 72 0.0 0.0 0.00 0.00 0.00 78 1015.0
20260905120044 72 0.0 0.0 0.00 0.00 0.00 79 1015.0
20260905115530 72 0.0 0.0 0.00 0.00 0.00 79 1015.1
20260905115027 72 0.0 0.0 0.00 0.00 0.00 79 1014.9
20260905114548 72 0.0 0.0 0.00 0.00 0.00 79 1014.9
20260905114028 72 0.0 0.0 0.00 0.00 0.00 79 1015.0
20260905113529 72 0.0 0.0 0.00 0.00 0.00 79 1015.0
20260905113044 72 0.0 0.0 0.00 0.00 0.00 79 1015.0
20260905112527 72 0.0 0.0 0.00 0.00 0.00 79 1015.0
20260905112026 72 0.0 0.0 0.00 0.00 0.00 79 1015.0
20260905111608 72 0.0 0.0 0.00 0.00 0.00 79 1015.1
20260905111025 72 0.0 0.0 0.00 0.00 0.00 79 1014.9
20260905110554 73 0.0 0.0 0.00 0.00 0.00 79 1015.1
20260905110041 73 0.0 0.0 0.00 0.00 0.00 78 1014.9
20260905105526 73 0.0 0.0 0.00 0.00 0.00 79 1014.9
20260905105039 74 0.0 0.0 0.00 0.00 0.00 79 1014.9
20260905104547 74 0.0 0.0 0.00 0.00 0.00 79 1015.0
20260905104027 74 0.0 0.0 0.00 0.00 0.00 80 1014.9
20260905103529 75 0.0 0.0 0.00 0.00 0.00 81 1014.7
20260905103045 76 0.0 0.0 0.00 0.00 0.00 81 1014.6
20260905102525 76 0.0 0.0 0.00 0.00 0.00 82 1014.6
20260905102026 76 0.0 0.0 0.00 0.00 0.00 82 1014.1
20260905101548 76 0.0 0.0 0.00 0.00 0.00 82 1013.7
20260905101025 76 0.0 0.0 0.00 0.00 0.00 82 1013.6
20260905100529 76 0.0 0.0 0.00 0.00 0.00 82 1013.7
20260905100042 76 0.0 0.0 0.00 0.00 0.00 82 1013.6
20260905095528 76 0.0 0.0 0.00 0.00 0.00 81 1013.6
20260905095026 77 0.0 0.0 0.00 0.00 0.00 81 1013.5
20260905094550 77 0.0 0.0 0.00 0.00 0.00 81 1013.5
20260905094027 77 0.0 0.0 0.00 0.00 0.00 81 1013.5
20260905093528 77 0.0 0.0 0.00 0.00 0.00 81 1013.4
20260905093044 77 0.0 0.0 0.00 0.00 0.00 81 1013.4
20260905092525 77 0.0 0.0 0.00 0.00 0.00 81 1013.5
20260905092028 77 0.0 0.0 0.00 0.00 0.00 81 1013.5
20260905091542 77 0.0 0.0 0.00 0.00 0.00 81 1013.5
20260905091027 77 0.0 0.0 0.00 0.00 0.00 81 1013.4
20260905090529 77 0.0 0.0 0.00 0.00 0.00 81 1013.4
20260905090046 78 0.0 0.0 0.00 0.00 0.00 81 1013.4
20260905085527 78 0.0 0.0 0.00 0.00 0.00 81 1013.5
20260905085026 78 0.0 0.0 0.00 0.00 0.00 81 1013.4
20260905084543 78 0.0 0.0 0.00 0.00 0.00 81 1013.5
20260905084026 78 0.0 0.0 0.00 0.00 0.00 80 1013.5
20260905083529 78 0.0 0.0 0.00 0.00 0.00 80 1013.5
20260905083041 78 0.0 0.0 0.00 0.00 0.00 80 1013.5
20260905082525 78 0.0 0.0 0.00 0.00 0.00 80 1013.5
20260905082027 78 0.0 0.0 0.00 0.00 0.00 80 1013.4
20260905081551 78 0.0 0.0 0.00 0.00 0.00 80 1013.4
20260905081025 78 0.0 0.0 0.00 0.00 0.00 80 1013.5
20260905080526 78 0.0 0.0 0.00 0.00 0.00 80 1013.5
20260905080048 78 0.0 0.0 0.00 0.00 0.00 80 1013.3
20260905075526 78 0.0 0.0 0.00 0.00 0.00 80 1013.2
20260905075026 78 0.0 0.0 0.00 0.00 0.00 80 1013.0
20260905074551 78 0.0 0.0 0.00 0.00 0.00 80 1012.9
20260905074026 78 0.0 0.0 0.00 0.00 0.00 80 1012.7
20260905073528 78 0.0 0.0 0.00 0.00 0.00 80 1012.7
20260905073057 78 0.0 0.0 0.00 0.00 0.00 80 1012.8
20260905072526 78 0.0 0.0 0.00 0.00 0.00 81 1012.7
20260905072025 78 0.0 0.0 0.00 0.00 0.00 81 1012.6
20260905071545 78 0.0 0.0 0.00 0.00 0.00 81 1012.5
20260905071026 78 0.0 0.0 0.00 0.00 0.00 81 1012.6
20260905070526 78 0.0 0.0 0.00 0.00 0.00 81 1012.8
20260905070050 78 0.0 0.0 0.00 0.00 0.00 81 1013.0
20260905065526 78 0.0 0.0 0.00 0.00 0.00 81 1012.8
20260905065027 78 0.0 0.0 0.00 0.00 0.00 81 1012.9
20260905064029 78 0.0 0.0 0.00 0.00 0.00 81 1013.0
20260905063525 78 0.0 0.0 0.00 0.00 0.00 81 1013.1
20260905063054 78 0.0 0.0 0.00 0.00 0.00 81 1013.2
20260905062528 78 0.0 0.0 0.00 0.00 0.00 81 1013.3
20260905062025 78 0.0 0.0 0.00 0.00 0.00 81 1013.4
20260905061541 78 0.0 0.0 0.00 0.00 0.00 81 1013.5
20260905061026 78 0.0 0.0 0.00 0.00 0.00 81 1013.6
20260905060526 79 0.0 0.0 0.00 0.00 0.00 81 1013.6
20260905060052 79 0.0 0.0 0.00 0.00 0.00 81 1013.6
20260905055525 79 0.0 0.0 0.00 0.00 0.00 81 1013.6
20260905055026 79 0.0 0.0 0.00 0.00 0.00 81 1013.7
20260905054548 79 0.0 0.0 0.00 0.00 0.00 81 1013.6
20260905054026 79 0.0 0.0 0.00 0.00 0.00 81 1013.6
20260905053529 79 0.0 0.0 0.00 0.00 0.00 81 1013.8
20260905053112 79 0.0 0.0 0.00 0.00 0.00 81 1013.8
20260905052526 79 0.0 0.0 0.00 0.00 0.00 80 1013.8
20260905052025 79 0.0 0.0 0.00 0.00 0.00 80 1013.8
20260905051539 79 0.0 0.0 0.00 0.00 0.00 80 1014.0
20260905051028 79 0.0 0.0 0.00 0.00 0.00 80 1013.9
20260905050526 79 0.0 0.0 0.00 0.00 0.00 80 1014.0
20260905050045 79 0.0 0.0 0.00 0.00 0.00 80 1013.9
20260905045525 80 0.0 0.0 0.00 0.00 0.00 80 1014.0
20260905045027 80 0.0 0.0 0.00 0.00 0.00 80 1014.0
20260905044548 80 0.0 0.0 0.00 0.00 0.00 80 1014.1
20260905044025 80 0.0 0.0 0.00 0.00 0.00 80 1014.0
20260905043525 80 0.0 0.0 0.00 0.00 0.00 80 1014.0
20260905043045 80 0.0 0.0 0.00 0.00 0.00 80 1014.2
20260905042525 80 0.0 0.0 0.00 0.00 0.00 80 1014.3
20260905042025 80 0.0 0.0 0.00 0.00 0.00 80 1014.3
20260905041546 80 0.0 0.0 0.00 0.00 0.00 80 1014.3
20260905041028 80 0.0 0.0 0.00 0.00 0.00 79 1014.2
20260905040528 80 0.0 0.0 0.00 0.00 0.00 79 1014.2
20260905040045 80 0.0 0.0 0.00 0.00 0.00 79 1014.3
20260905035525 81 0.0 0.0 0.00 0.00 0.00 79 1014.3
20260905035025 81 0.0 0.0 0.00 0.00 0.00 79 1014.3
20260905034543 81 0.0 0.0 0.00 0.00 0.00 79 1014.3
20260905034025 81 0.0 0.0 0.00 0.00 0.00 79 1014.2
20260905033526 81 0.0 0.0 0.00 0.00 0.00 79 1014.4
20260905033055 81 0.0 0.0 0.00 0.00 0.00 79 1014.4
20260905032527 81 0.0 0.0 0.00 0.00 0.00 78 1014.4
20260905032025 81 0.0 0.0 0.00 0.00 0.00 78 1014.5
20260905031544 81 0.0 0.0 0.00 0.00 0.00 78 1014.6
20260905031027 82 0.0 0.0 0.00 0.00 0.00 78 1014.5
20260905030527 82 0.0 0.0 0.00 0.00 0.00 78 1014.5
20260905030044 82 0.0 0.0 0.00 0.00 0.00 78 1014.4
20260905025529 82 0.0 0.0 0.00 0.00 0.00 78 1014.4
20260905025026 82 0.0 0.0 0.00 0.00 0.00 77 1014.3
20260905024543 82 0.0 0.0 0.00 0.00 0.00 78 1014.3
20260905024029 82 0.0 0.0 0.00 0.00 0.00 77 1014.3
20260905023526 83 0.0 0.0 0.00 0.00 0.00 77 1014.2
20260905023044 83 0.0 0.0 0.00 0.00 0.00 77 1014.0
20260905022527 83 0.0 0.0 0.00 0.00 0.00 77 1014.0
20260905022026 83 0.0 0.0 0.00 0.00 0.00 76 1014.1
20260905021541 83 0.0 0.0 0.00 0.00 0.00 76 1014.1
20260905021028 83 0.0 0.0 0.00 0.00 0.00 76 1014.0
20260905020526 84 0.0 0.0 0.00 0.00 0.00 76 1014.1
20260905020049 84 0.0 0.0 0.00 0.00 0.00 76 1014.1
20260905015525 84 0.0 0.0 0.00 0.00 0.00 75 1014.0
20260905015030 84 0.0 0.0 0.00 0.00 0.00 75 1014.0
20260905014543 84 0.0 0.0 0.00 0.00 0.00 75 1013.9
20260905014024 85 0.0 0.0 0.00 0.00 0.00 74 1014.0
20260905013526 85 0.0 0.0 0.00 0.00 0.00 74 1013.9
20260905013048 85 0.0 0.0 0.00 0.00 0.00 73 1013.9
20260905012527 86 0.0 0.0 0.00 0.00 0.00 73 1013.9
20260905012027 86 0.0 0.0 0.00 0.00 0.00 72 1013.9
20260905011545 86 0.0 0.0 0.00 0.00 0.00 72 1013.9
20260905011027 87 0.0 0.0 0.00 0.00 0.00 72 1013.9
20260905010526 87 0.0 0.0 0.00 0.00 0.00 71 1014.0
20260905010043 87 0.0 0.0 0.00 0.00 0.00 71 1014.0
20260905005526 87 0.0 0.0 0.00 0.00 0.00 70 1013.8
20260905005025 88 0.0 0.0 0.00 0.00 0.00 69 1013.7
20260905004543 88 0.0 0.0 0.00 0.00 0.00 68 1013.7
20260905004025 89 0.0 0.0 0.00 0.00 0.00 68 1013.7
20260905003529 89 0.0 0.0 0.00 0.00 0.00 68 1013.7
20260905003048 89 0.0 0.0 0.00 0.00 0.00 67 1013.7
20260905002524 89 0.0 0.0 0.00 0.00 0.00 67 1013.7
20260905002027 90 0.0 0.0 0.00 0.00 0.00 65 1013.7
20260905001544 90 0.0 0.0 0.00 0.00 0.00 65 1013.7
20260905001025 90 0.0 0.0 0.00 0.00 0.00 65 1013.7
20260905000526 91 0.0 0.0 0.00 0.00 0.00 64 1013.7
20260905000044 91 0.0 0.0 0.00 0.00 0.00 63 1013.7
20260904235526 92 0.0 0.0 0.00 0.00 0.00 61 1013.8
20260904235025 92 0.0 0.0 0.00 0.00 0.00 59 1013.8
20260904234544 92 0.0 0.0 0.00 0.00 0.00 59 1013.8
20260904234029 93 0.0 0.0 0.00 0.00 0.00 60 1013.8
20260904233526 93 0.0 0.0 0.00 0.00 0.00 60 1013.8
20260904233052 93 0.0 0.0 0.00 0.00 0.00 58 1013.9
20260904232529 93 0.0 0.0 0.00 0.00 0.00 56 1013.9
20260904232026 93 0.0 0.0 0.00 0.00 0.00 55 1013.8
20260904231547 93 0.0 0.0 0.00 0.00 0.00 56 1013.8
20260904231026 93 0.0 0.0 0.00 0.00 0.00 55 1013.7
20260904230527 93 0.0 0.0 0.00 0.00 0.00 53 1013.8
20260904230045 94 0.0 0.0 0.00 0.00 0.00 54 1013.8
20260904225526 94 0.0 0.0 0.00 0.00 0.00 52 1013.7
20260904225025 94 0.0 0.0 0.00 0.00 0.00 53 1013.7
20260904224604 94 0.0 0.0 0.00 0.00 0.00 52 1013.8
20260904224027 94 0.0 0.0 0.00 0.00 0.00 52 1013.7
20260904223527 94 0.0 0.0 0.00 0.00 0.00 51 1013.6
20260904223046 94 0.0 0.0 0.00 0.00 0.00 52 1013.6
20260904222527 94 0.0 0.0 0.00 0.00 0.00 52 1013.6
20260904222027 95 0.0 0.0 0.00 0.00 0.00 51 1013.4
20260904221558 95 0.0 0.0 0.00 0.00 0.00 51 1013.3
20260904221028 96 0.0 0.0 0.00 0.00 0.00 49 1013.4
20260904220531 97 0.0 0.0 0.00 0.00 0.00 50 1013.3
20260904220049 97 0.0 0.0 0.00 0.00 0.00 52 1013.4
20260904215527 97 0.0 0.0 0.00 0.00 0.00 52 1013.4
20260904215028 97 0.0 0.0 0.00 0.00 0.00 50 1013.4
20260904214549 98 0.0 0.0 0.00 0.00 0.00 48 1013.5